Location: Bottenau
(48.5138°N, 8.0462°E)
Time: 05:48:30
(UTC+00:00)

Cosmos 2344 - Pass Details

Date: 18 April 2021
Orbit: 1241 x 3002 km, 63.3° (Epoch: 09 May)

Event Time Altitude Azimuth Distance (km) Brightness Sun altitude
Rises 20:37:24 0° 230° (SW) 4,249 6.4 -19.6°
Reaches altitude 10° 20:40:11 10° 233° (SW) 3,227 5.8 -19.9°
Maximum altitude 20:47:34 70° 317° (NW) 1,340 3.8 -20.7°
Drops below altitude 10° 20:55:43 10° 41° (NE) 3,540 6.0 -21.6°
Sets 20:58:55 0° 44° (NE) 4,691 6.6 -22.0°
